Simultaneous Nadir Overpasses (SNOs) Predictions

Prediction of SNOs between AQUA and NPP Satellite Orbit:

Table of predicted SNOs for the next 14.0 days since TLE Epoch: 1/26/2018
Index Date (AQUA) Time (AQUA) Lat,Lon (AQUA) SZA (AQUA ) Date (NPP) Time (NPP) Lat,Lon (NPP) SZA (NPP ) Distance(km) Time Diff (sec)
1 01/27/2018 14:05:30 75.89,-152.49 115.89 01/27/2018 14:04:39 75.89,-152.56 115.95 1.83 51
2 01/27/2018 14:54:36 -76.91, 18.54 65.29 01/27/2018 14:55:02 -76.90, 18.48 65.30 1.56 26
3 01/30/2018 06:21:54 76.23, -35.56 114.84 01/30/2018 06:21:25 76.22, -35.63 114.88 1.79 29
4 01/30/2018 07:11:02 -77.14, 135.29 66.24 01/30/2018 07:11:50 -77.14, 135.22 66.27 1.77 48
5 02/01/2018 22:38:18 76.55, 81.40 113.75 02/01/2018 22:38:11 76.55, 81.35 113.77 1.43 7
6 02/01/2018 23:27:27 -77.41,-107.77 67.29 02/01/2018 23:28:37 -77.41,-107.83 67.33 1.67 70
7 02/04/2018 14:05:39 -75.79, 27.19 66.13 02/04/2018 14:04:37 -75.78, 27.11 66.05 2.15 62
8 02/04/2018 14:54:41 76.92,-161.43 112.56 02/04/2018 14:54:56 76.92,-161.45 112.56 0.77 15
9 02/07/2018 06:22:01 -76.16, 144.23 67.35 02/07/2018 06:21:21 -76.16, 144.16 67.30 1.83 40




NCC Satellite Simultaneous Nadir Overpasses (SNOs) Prediction Service
